,,PressureMeas_1m,,PRMeasQMR101_1,,RHStat155_1m_1,,SRMeasQMS101R_1m,,TAStat155_1m_1,,GenWind_1,,GenWind_1,
2018-10-19, 07:00:06,VALID,919.092,VALID,0.0,VALID,98.422,VALID,169.502,VALID,18.827,VALID,102.0,VALID,0.0,
2018-10-19, 07:01:06,VALID,919.109,VALID,0.0,VALID,98.306,VALID,175.838,VALID,18.844,VALID,105.0,VALID,0.0,
2018-10-19, 07:02:06,VALID,919.13,VALID,0.0,VALID,98.23,VALID,180.312,VALID,18.891,VALID,106.0,VALID,0.0,
2018-10-19, 07:03:06,VALID,919.151,VALID,0.0,VALID,97.959,VALID,184.09,VALID,18.81,VALID,115.0,VALID,0.0,
2018-10-19, 07:04:06,VALID,919.171,VALID,0.0,VALID,97.74,VALID,188.159,VALID,18.75,VALID,116.0,VALID,0.0,
2018-10-19, 07:05:06,VALID,919.194,VALID,0.0,VALID,97.777,VALID,192.395,VALID,18.793,VALID,108.0,VALID,0.0,
2018-10-19, 07:06:06,VALID,919.209,VALID,0.0,VALID,97.929,VALID,194.467,VALID,18.943,VALID,111.0,VALID,0.0,
2018-10-19, 07:07:06,VALID,919.23,VALID,0.0,VALID,98.038,VALID,194.625,VALID,19.114,VALID,86.0,VALID,0.0,
2018-10-19, 07:08:06,VALID,919.246,VALID,0.0,VALID,97.614,VALID,174.735,VALID,19.13,VALID,88.0,VALID,0.0,
2018-10-19, 07:09:06,VALID,919.255,VALID,0.0,VALID,97.261,VALID,184.467,VALID,19.126,VALID,90.0,VALID,0.0,
2018-10-19, 07:10:06,VALID,919.273,VALID,0.0,VALID,97.311,VALID,201.431,VALID,19.241,VALID,100.0,VALID,0.0,
2018-10-19, 07:11:06,VALID,919.288,VALID,0.0,VALID,97.139,VALID,199.065,VALID,19.323,VALID,106.0,VALID,0.0,
2018-10-19, 07:12:06,VALID,919.285,VALID,0.0,VALID,96.493,VALID,204.437,VALID,19.313,VALID,105.0,VALID,0.0,
2018-10-19, 07:13:06,VALID,919.263,VALID,0.0,VALID,96.135,VALID,194.478,VALID,19.344,VALID,95.0,VALID,0.0,
2018-10-19, 07:14:06,VALID,919.278,VALID,0.0,VALID,96.247,VALID,252.461,VALID,19.466,VALID,103.0,VALID,0.0,
2018-10-19, 07:15:06,VALID,919.261,VALID,0.0,VALID,95.94,VALID,240.606,VALID,19.53,VALID,111.0,VALID,0.0,
2018-10-19, 07:16:06,VALID,919.258,VALID,0.0,VALID,95.342,VALID,170.969,VALID,19.49,VALID,109.0,VALID,0.0,
2018-10-19, 07:17:06,VALID,919.253,VALID,0.0,VALID,95.612,VALID,186.884,VALID,19.598,VALID,89.0,VALID,0.0,
2018-10-19, 07:18:06,VALID,919.234,VALID,0.0,VALID,95.584,VALID,223.938,VALID,19.678,VALID,116.0,VALID,0.0,
2018-10-19, 07:19:06,VALID,919.242,VALID,0.0,VALID,95.36,VALID,160.134,VALID,19.714,VALID,112.0,VALID,0.0,
2018-10-19, 07:20:06,VALID,919.229,VALID,0.0,VALID,94.962,VALID,136.274,VALID,19.683,VALID,131.0,VALID,0.0,
2018-10-19, 07:21:06,VALID,919.217,VALID,0.0,VALID,94.533,VALID,123.608,VALID,19.557,VALID,131.0,VALID,0.0,
2018-10-19, 07:22:06,VALID,919.235,VALID,0.0,VALID,94.738,VALID,109.245,VALID,19.455,VALID,129.0,VALID,0.0,
2018-10-19, 07:23:06,VALID,919.237,VALID,0.0,VALID,94.542,VALID,104.977,VALID,19.273,VALID,123.0,VALID,0.0,
2018-10-19, 07:24:06,VALID,919.247,VALID,0.0,VALID,94.876,VALID,106.66,VALID,19.143,VALID,128.0,VALID,0.0,
2018-10-19, 07:25:06,VALID,919.262,VALID,0.0,VALID,95.209,VALID,117.731,VALID,19.048,VALID,125.0,VALID,0.0,
2018-10-19, 07:26:06,VALID,919.3,VALID,0.0,VALID,95.486,VALID,114.822,VALID,18.994,VALID,127.0,VALID,0.0,
2018-10-19, 07:27:06,VALID,919.33,VALID,0.0,VALID,95.529,VALID,109.845,VALID,18.951,VALID,129.0,VALID,0.0,
2018-10-19, 07:28:06,VALID,919.357,VALID,0.0,VALID,95.613,VALID,108.833,VALID,18.951,VALID,130.0,VALID,0.0,
2018-10-19, 07:29:06,VALID,919.394,VALID,0.0,VALID,95.941,VALID,101.194,VALID,18.99,VALID,131.0,VALID,0.0,
2018-10-19, 07:30:06,VALID,919.397,VALID,0.0,VALID,96.117,VALID,100.979,VALID,19.021,VALID,128.0,VALID,0.0,
2018-10-19, 07:31:06,VALID,919.424,VALID,0.0,VALID,96.099,VALID,100.373,VALID,19.017,VALID,125.0,VALID,0.0,
2018-10-19, 07:32:06,VALID,919.443,VALID,0.0,VALID,96.227,VALID,100.404,VALID,19.024,VALID,125.0,VALID,0.0,
2018-10-19, 07:33:06,VALID,919.44,VALID,0.0,VALID,96.455,VALID,101.65,VALID,19.043,VALID,123.0,VALID,0.0,
2018-10-19, 07:34:06,VALID,919.451,VALID,0.0,VALID,96.354,VALID,108.922,VALID,19.016,VALID,111.0,VALID,0.0,
2018-10-19, 07:35:06,VALID,919.454,VALID,0.0,VALID,96.597,VALID,116.161,VALID,19.091,VALID,108.0,VALID,0.0,
2018-10-19, 07:36:06,VALID,919.462,VALID,0.0,VALID,96.403,VALID,137.048,VALID,19.104,VALID,111.0,VALID,0.0,
2018-10-19, 07:37:06,VALID,919.464,VALID,0.0,VALID,96.211,VALID,198.458,VALID,19.133,VALID,113.0,VALID,0.0,
2018-10-19, 07:38:06,VALID,919.487,VALID,0.0,VALID,96.115,VALID,149.601,VALID,19.178,VALID,114.0,VALID,0.0,
2018-10-19, 07:39:06,VALID,919.502,VALID,0.0,VALID,95.887,VALID,134.465,VALID,19.2,VALID,111.0,VALID,0.0,
2018-10-19, 07:40:06,VALID,919.549,VALID,0.0,VALID,95.789,VALID,137.248,VALID,19.212,VALID,115.0,VALID,0.0,
2018-10-19, 07:41:06,VALID,919.554,VALID,0.0,VALID,95.773,VALID,195.721,VALID,19.234,VALID,114.0,VALID,0.0,
2018-10-19, 07:42:06,VALID,919.594,VALID,0.0,VALID,96.013,VALID,157.515,VALID,19.308,VALID,118.0,VALID,0.0,
2018-10-19, 07:43:06,VALID,919.61,VALID,0.0,VALID,96.248,VALID,150.732,VALID,19.435,VALID,79.0,VALID,0.0,
2018-10-19, 07:44:06,VALID,919.636,VALID,0.0,VALID,95.834,VALID,160.891,VALID,19.475,VALID,83.0,VALID,0.0,
2018-10-19, 07:45:06,VALID,919.646,VALID,0.0,VALID,94.971,VALID,163.737,VALID,19.432,VALID,74.0,VALID,0.0,
2018-10-19, 07:46:06,VALID,919.663,VALID,0.0,VALID,95.004,VALID,202.425,VALID,19.492,VALID,83.0,VALID,0.0,
2018-10-19, 07:47:06,VALID,919.69,VALID,0.0,VALID,95.126,VALID,285.595,VALID,19.593,VALID,70.0,VALID,0.0,
2018-10-19, 07:48:06,VALID,919.707,VALID,0.0,VALID,94.663,VALID,148.238,VALID,19.658,VALID,77.0,VALID,0.0,
2018-10-19, 07:49:06,VALID,919.715,VALID,0.0,VALID,93.137,VALID,172.027,VALID,19.563,VALID,82.0,VALID,0.0,
2018-10-19, 07:50:06,VALID,919.746,VALID,0.0,VALID,93.558,VALID,124.259,VALID,19.547,VALID,82.0,VALID,0.0,
2018-10-19, 07:51:06,VALID,919.752,VALID,0.0,VALID,93.379,VALID,125.554,VALID,19.52,VALID,73.0,VALID,0.0,
2018-10-19, 07:52:06,VALID,919.783,VALID,0.0,VALID,94.36,VALID,165.511,VALID,19.588,VALID,61.0,VALID,0.0,
2018-10-19, 07:53:06,VALID,919.789,VALID,0.0,VALID,94.192,VALID,151.507,VALID,19.624,VALID,74.0,VALID,0.0,
2018-10-19, 07:54:06,VALID,919.809,VALID,0.0,VALID,94.304,VALID,158.008,VALID,19.697,VALID,71.0,VALID,0.0,
2018-10-19, 07:55:06,VALID,919.822,VALID,0.0,VALID,94.627,VALID,245.594,VALID,19.804,VALID,71.0,VALID,0.0,
2018-10-19, 07:56:06,VALID,919.834,VALID,0.0,VALID,94.03,VALID,381.628,VALID,19.865,VALID,80.0,VALID,0.0,
2018-10-19, 07:57:06,VALID,919.859,VALID,0.0,VALID,93.794,VALID,415.961,VALID,19.98,VALID,77.0,VALID,0.0,
2018-10-19, 07:58:06,VALID,919.856,VALID,0.0,VALID,94.602,VALID,421.983,VALID,20.25,VALID,92.0,VALID,0.0,
2018-10-19, 07:59:06,VALID,919.855,VALID,0.0,VALID,92.904,VALID,419.458,VALID,20.445,VALID,112.0,VALID,0.0,
2018-10-19, 08:00:06,VALID,919.901,VALID,0.0,VALID,91.94,VALID,422.666,VALID,20.644,VALID,108.0,VALID,0.0,
2018-10-19, 08:01:06,VALID,919.888,VALID,0.0,VALID,90.655,VALID,424.082,VALID,20.787,VALID,123.0,VALID,0.0,
2018-10-19, 08:02:06,VALID,919.888,VALID,0.0,VALID,89.48,VALID,425.102,VALID,20.821,VALID,130.0,VALID,0.0,
2018-10-19, 08:03:06,VALID,919.915,VALID,0.0,VALID,89.343,VALID,426.378,VALID,20.908,VALID,125.0,VALID,0.0,
2018-10-19, 08:04:06,VALID,919.926,VALID,0.0,VALID,88.394,VALID,428.533,VALID,20.868,INVALID,360.0,VALID,0.0,
2018-10-19, 08:05:06,VALID,919.936,VALID,0.0,VALID,89.298,VALID,430.321,VALID,20.955,VALID,116.0,VALID,0.0,
2018-10-19, 08:06:06,VALID,919.939,VALID,0.0,VALID,88.73,VALID,432.85,VALID,21.052,VALID,122.0,VALID,0.0,
2018-10-19, 08:07:06,VALID,919.938,VALID,0.0,VALID,87.599,VALID,436.208,VALID,21.069,VALID,120.0,VALID,0.0,
2018-10-19, 08:08:06,VALID,919.944,VALID,0.0,VALID,87.205,VALID,439.246,VALID,21.053,VALID,134.0,VALID,0.0,
2018-10-19, 08:09:06,VALID,919.952,VALID,0.0,VALID,87.145,VALID,441.65,VALID,21.031,VALID,124.0,VALID,0.0,
2018-10-19, 08:10:06,VALID,919.962,VALID,0.0,VALID,87.862,VALID,445.067,VALID,21.026,VALID,127.0,VALID,0.0,
2018-10-19, 08:11:06,VALID,919.971,VALID,0.0,VALID,87.986,VALID,448.557,VALID,21.144,VALID,115.0,VALID,0.0,
2018-10-19, 08:12:06,VALID,919.981,VALID,0.0,VALID,87.742,VALID,451.736,VALID,21.211,VALID,134.0,VALID,0.0,
2018-10-19, 08:13:06,VALID,919.989,VALID,0.0,VALID,88.009,VALID,455.23,VALID,21.305,VALID,130.0,VALID,0.0,
2018-10-19, 08:14:06,VALID,919.996,VALID,0.0,VALID,87.392,VALID,458.647,VALID,21.435,VALID,119.0,VALID,0.0,
2018-10-19, 08:15:06,VALID,920.029,VALID,0.0,VALID,86.265,VALID,462.126,VALID,21.488,VALID,136.0,VALID,0.0,
2018-10-19, 08:16:06,VALID,920.023,VALID,0.0,VALID,86.791,VALID,465.945,VALID,21.559,VALID,131.0,VALID,0.0,
2018-10-19, 08:17:06,VALID,920.04,VALID,0.0,VALID,85.92,VALID,469.494,VALID,21.611,VALID,122.0,VALID,0.0,
2018-10-19, 08:18:06,VALID,920.039,VALID,0.0,VALID,85.158,VALID,473.357,VALID,21.505,VALID,130.0,VALID,0.0,
2018-10-19, 08:19:06,VALID,920.062,VALID,0.0,VALID,84.751,VALID,477.014,VALID,21.504,VALID,131.0,VALID,0.0,
2018-10-19, 08:20:06,VALID,920.075,VALID,0.0,VALID,84.737,VALID,480.567,VALID,21.549,VALID,129.0,VALID,0.0,
2018-10-19, 08:21:06,VALID,920.076,VALID,0.0,VALID,84.468,VALID,484.426,VALID,21.696,VALID,115.0,VALID,0.0,
2018-10-19, 08:22:06,VALID,920.104,VALID,0.0,VALID,84.093,VALID,488.272,VALID,21.886,INVALID,360.0,VALID,0.0,
2018-10-19, 08:23:06,VALID,920.097,VALID,0.0,VALID,84.26,VALID,491.641,VALID,22.002,VALID,102.0,VALID,0.0,
2018-10-19, 08:24:06,VALID,920.101,VALID,0.0,VALID,85.172,VALID,495.42,VALID,22.29,VALID,110.0,VALID,0.0,
2018-10-19, 08:25:06,VALID,920.119,VALID,0.0,VALID,83.73,VALID,498.785,VALID,22.478,INVALID,360.0,VALID,0.0,
2018-10-19, 08:26:06,VALID,920.124,VALID,0.0,VALID,82.739,VALID,502.559,VALID,22.54,INVALID,360.0,VALID,0.0,
2018-10-19, 08:27:06,VALID,920.151,VALID,0.0,VALID,82.739,VALID,506.002,VALID,22.415,INVALID,360.0,VALID,0.0,
2018-10-19, 08:28:06,VALID,920.149,VALID,0.0,VALID,84.538,VALID,509.404,VALID,22.423,INVALID,360.0,VALID,0.0,
2018-10-19, 08:29:06,VALID,920.168,VALID,0.0,VALID,82.352,VALID,512.93,VALID,22.496,VALID,94.0,VALID,0.0,
2018-10-19, 08:30:06,VALID,920.166,VALID,0.0,VALID,82.334,VALID,516.731,VALID,22.487,VALID,78.0,VALID,0.0,
2018-10-19, 08:31:06,VALID,920.152,VALID,0.0,VALID,82.508,VALID,520.631,VALID,22.63,VALID,55.0,VALID,0.0,
2018-10-19, 08:32:06,VALID,920.172,VALID,0.0,VALID,81.993,VALID,523.597,VALID,22.755,VALID,72.0,VALID,0.0,
2018-10-19, 08:33:06,VALID,920.179,VALID,0.0,VALID,80.8,VALID,526.403,VALID,22.762,VALID,103.0,VALID,0.0,
2018-10-19, 08:34:06,VALID,920.169,VALID,0.0,VALID,81.789,VALID,529.888,VALID,22.807,VALID,136.0,VALID,0.0,
2018-10-19, 08:35:06,VALID,920.177,VALID,0.0,VALID,79.823,VALID,532.842,VALID,22.729,VALID,33.0,VALID,0.0,
2018-10-19, 08:36:06,VALID,920.167,VALID,0.0,VALID,80.345,VALID,536.287,VALID,22.603,VALID,28.0,VALID,0.0,
2018-10-19, 08:37:06,VALID,920.183,VALID,0.0,VALID,80.402,VALID,539.706,VALID,22.472,INVALID,360.0,VALID,0.0,
2018-10-19, 08:38:06,VALID,920.176,VALID,0.0,VALID,81.746,VALID,543.068,VALID,22.514,INVALID,360.0,VALID,0.0,
2018-10-19, 08:39:06,VALID,920.184,VALID,0.0,VALID,81.465,VALID,546.914,VALID,22.727,INVALID,360.0,VALID,0.0,
2018-10-19, 08:40:06,VALID,920.159,VALID,0.0,VALID,80.725,VALID,550.247,VALID,22.916,INVALID,360.0,VALID,0.0,
2018-10-19, 08:41:06,VALID,920.164,VALID,0.0,VALID,78.127,VALID,553.926,VALID,23.049,INVALID,360.0,VALID,0.0,
2018-10-19, 08:42:06,VALID,920.162,VALID,0.0,VALID,79.219,VALID,557.508,VALID,23.101,VALID,90.0,VALID,0.0,
2018-10-19, 08:43:06,VALID,920.155,VALID,0.0,VALID,77.428,VALID,561.159,VALID,23.121,VALID,106.0,VALID,0.0,
2018-10-19, 08:44:06,VALID,920.139,VALID,0.0,VALID,77.141,VALID,564.822,VALID,23.133,VALID,89.0,VALID,0.0,
2018-10-19, 08:45:06,VALID,920.176,VALID,0.0,VALID,78.669,VALID,568.201,VALID,23.179,VALID,29.0,VALID,0.0,
2018-10-19, 08:46:06,VALID,920.167,VALID,0.0,VALID,78.068,VALID,571.01,VALID,23.431,VALID,60.0,VALID,0.0,
2018-10-19, 08:47:06,VALID,920.174,VALID,0.0,VALID,78.161,VALID,573.431,VALID,23.647,VALID,107.0,VALID,0.0,
2018-10-19, 08:48:06,VALID,920.172,VALID,0.0,VALID,78.157,VALID,577.459,VALID,23.795,VALID,32.0,VALID,0.0,
2018-10-19, 08:49:06,VALID,920.179,VALID,0.0,VALID,75.399,VALID,581.192,VALID,23.813,VALID,291.0,VALID,0.0,
2018-10-19, 08:50:06,VALID,920.17,VALID,0.0,VALID,73.299,VALID,584.883,VALID,23.42,VALID,274.0,VALID,0.0,
2018-10-19, 08:51:06,VALID,920.179,VALID,0.0,VALID,73.538,VALID,588.272,VALID,23.242,VALID,332.0,VALID,0.0,
2018-10-19, 08:52:06,VALID,920.172,VALID,0.0,VALID,72.4,VALID,591.695,VALID,23.184,VALID,342.0,VALID,0.0,
2018-10-19, 08:53:06,VALID,920.151,VALID,0.0,VALID,74.62,VALID,596.059,VALID,23.134,VALID,344.0,VALID,0.0,
2018-10-19, 08:54:06,VALID,920.152,VALID,0.0,VALID,74.033,VALID,600.081,VALID,23.093,VALID,283.0,VALID,0.0,
2018-10-19, 08:55:06,VALID,920.156,VALID,0.0,VALID,73.073,VALID,604.09,VALID,23.015,VALID,309.0,VALID,0.0,
2018-10-19, 08:56:06,VALID,920.158,VALID,0.0,VALID,71.498,VALID,608.643,VALID,23.214,VALID,342.0,VALID,0.0,
2018-10-19, 08:57:06,VALID,920.16,VALID,0.0,VALID,74.116,VALID,612.606,VALID,23.446,VALID,13.0,VALID,0.0,
2018-10-19, 08:58:06,VALID,920.16,VALID,0.0,VALID,73.053,VALID,623.049,VALID,23.583,VALID,275.0,VALID,0.0,
2018-10-19, 08:59:06,VALID,920.166,VALID,0.0,VALID,70.696,VALID,633.837,VALID,23.273,VALID,256.0,VALID,0.0,
2018-10-19, 09:00:06,VALID,920.183,VALID,0.0,VALID,74.253,VALID,634.684,VALID,23.219,VALID,344.0,VALID,0.0,
2018-10-19, 09:01:06,VALID,920.202,VALID,0.0,VALID,74.295,VALID,569.863,VALID,23.525,VALID,316.0,VALID,0.0,
2018-10-19, 09:02:06,VALID,920.189,VALID,0.0,VALID,72.463,VALID,451.972,VALID,23.548,VALID,278.0,VALID,0.0,
2018-10-19, 09:03:06,VALID,920.208,VALID,0.0,VALID,71.155,VALID,368.143,VALID,23.221,VALID,287.0,VALID,0.0,
2018-10-19, 09:04:06,VALID,920.201,VALID,0.0,VALID,75.047,VALID,341.469,VALID,23.134,VALID,323.0,VALID,0.0,
2018-10-19, 09:05:06,VALID,920.198,VALID,0.0,VALID,74.675,VALID,380.009,VALID,23.125,VALID,280.0,VALID,0.0,
2018-10-19, 09:06:06,VALID,920.204,VALID,0.0,VALID,74.29,VALID,394.188,VALID,22.846,VALID,278.0,VALID,0.0,
2018-10-19, 09:07:06,VALID,920.211,VALID,0.0,VALID,76.973,VALID,388.354,VALID,22.803,VALID,305.0,VALID,0.0,
2018-10-19, 09:08:06,VALID,920.209,VALID,0.0,VALID,72.389,VALID,396.877,VALID,22.768,VALID,265.0,VALID,0.0,
2018-10-19, 09:09:06,VALID,920.21,VALID,0.0,VALID,75.863,VALID,464.661,VALID,22.766,VALID,349.0,VALID,0.0,
2018-10-19, 09:10:06,VALID,920.223,VALID,0.0,VALID,75.977,VALID,582.443,VALID,22.985,VALID,335.0,VALID,0.0,
2018-10-19, 09:11:06,VALID,920.211,VALID,0.0,VALID,72.894,VALID,714.204,VALID,23.153,VALID,331.0,VALID,0.0,
2018-10-19, 09:12:06,VALID,920.229,VALID,0.0,VALID,73.479,VALID,581.217,VALID,23.258,VALID,4.0,VALID,0.0,
2018-10-19, 09:13:06,VALID,920.225,VALID,0.0,VALID,72.722,VALID,612.51,VALID,23.321,VALID,3.0,VALID,0.0,
2018-10-19, 09:14:06,VALID,920.234,VALID,0.0,VALID,72.772,VALID,642.924,VALID,23.436,VALID,284.0,VALID,0.0,
2018-10-19, 09:15:06,VALID,920.24,VALID,0.0,VALID,72.862,VALID,653.252,VALID,23.506,VALID,272.0,VALID,0.0,
2018-10-19, 09:16:06,VALID,920.249,VALID,0.0,VALID,73.306,VALID,676.375,VALID,23.522,VALID,269.0,VALID,0.0,
2018-10-19, 09:17:06,VALID,920.25,VALID,0.0,VALID,72.174,VALID,628.716,VALID,23.564,VALID,305.0,VALID,0.0,
2018-10-19, 09:18:06,VALID,920.242,VALID,0.0,VALID,72.753,VALID,575.438,VALID,23.723,VALID,294.0,VALID,0.0,
2018-10-19, 09:19:06,VALID,920.258,VALID,0.0,VALID,71.101,VALID,548.498,VALID,23.683,VALID,280.0,VALID,0.0,
2018-10-19, 09:20:06,VALID,920.244,VALID,0.0,VALID,70.735,VALID,583.213,VALID,23.676,VALID,282.0,VALID,0.0,
2018-10-19, 09:21:06,VALID,920.244,VALID,0.0,VALID,71.194,VALID,644.896,VALID,23.651,VALID,290.0,VALID,0.0,
2018-10-19, 09:22:06,VALID,920.232,VALID,0.0,VALID,71.751,VALID,709.961,VALID,23.649,VALID,274.0,VALID,0.0,
2018-10-19, 09:23:06,VALID,920.238,VALID,0.0,VALID,72.634,VALID,719.253,VALID,23.851,VALID,311.0,VALID,0.0,
2018-10-19, 09:24:06,VALID,920.231,VALID,0.0,VALID,70.506,VALID,664.115,VALID,23.985,VALID,276.0,VALID,0.0,
2018-10-19, 09:25:06,VALID,920.228,VALID,0.0,VALID,71.227,VALID,723.108,VALID,23.977,VALID,349.0,VALID,0.0,
2018-10-19, 09:26:06,VALID,920.239,VALID,0.0,VALID,72.017,VALID,683.148,VALID,24.238,VALID,341.0,VALID,0.0,
2018-10-19, 09:27:06,VALID,920.243,VALID,0.0,VALID,70.097,VALID,714.807,VALID,24.447,VALID,322.0,VALID,0.0,
2018-10-19, 09:28:06,VALID,920.229,VALID,0.0,VALID,70.037,VALID,730.587,VALID,24.571,VALID,297.0,VALID,0.0,
2018-10-19, 09:29:06,VALID,920.237,VALID,0.0,VALID,69.583,VALID,725.555,VALID,24.506,VALID,300.0,VALID,0.0,
2018-10-19, 09:30:06,VALID,920.222,VALID,0.0,VALID,71.072,VALID,723.045,VALID,24.598,VALID,350.0,VALID,0.0,
2018-10-19, 09:31:06,VALID,920.221,VALID,0.0,VALID,70.257,VALID,722.375,VALID,24.852,VALID,9.0,VALID,0.0,
2018-10-19, 09:32:06,VALID,920.206,VALID,0.0,VALID,70.727,VALID,722.32,VALID,25.078,VALID,352.0,VALID,0.0,
2018-10-19, 09:33:06,VALID,920.203,VALID,0.0,VALID,67.359,VALID,722.897,VALID,25.148,VALID,316.0,VALID,0.0,
2018-10-19, 09:34:06,VALID,920.195,VALID,0.0,VALID,68.048,VALID,724.65,VALID,25.189,VALID,12.0,VALID,0.0,
2018-10-19, 09:35:06,VALID,920.183,VALID,0.0,VALID,67.741,VALID,726.891,VALID,25.283,VALID,354.0,VALID,0.0,
2018-10-19, 09:36:06,VALID,920.178,VALID,0.0,VALID,65.828,VALID,729.278,VALID,25.183,VALID,225.0,VALID,0.0,
2018-10-19, 09:37:06,VALID,920.167,VALID,0.0,VALID,66.402,VALID,731.55,VALID,24.772,VALID,256.0,VALID,0.0,
2018-10-19, 09:38:06,VALID,920.164,VALID,0.0,VALID,71.826,VALID,734.157,VALID,24.834,VALID,337.0,VALID,0.0,
2018-10-19, 09:39:06,VALID,920.165,VALID,0.0,VALID,69.803,VALID,736.419,VALID,25.046,VALID,303.0,VALID,0.0,
2018-10-19, 09:40:06,VALID,920.154,VALID,0.0,VALID,68.087,VALID,739.072,VALID,25.188,VALID,289.0,VALID,0.0,
2018-10-19, 09:41:06,VALID,920.166,VALID,0.0,VALID,65.188,VALID,742.156,VALID,25.153,VALID,295.0,VALID,0.0,
2018-10-19, 09:42:06,VALID,920.169,VALID,0.0,VALID,66.471,VALID,744.821,VALID,25.177,VALID,32.0,VALID,0.0,
2018-10-19, 09:43:06,VALID,920.164,VALID,0.0,VALID,68.34,VALID,747.38,VALID,25.163,VALID,245.0,VALID,0.0,
2018-10-19, 09:44:06,VALID,920.162,VALID,0.0,VALID,69.44,VALID,750.213,VALID,25.099,VALID,343.0,VALID,0.0,
2018-10-19, 09:45:06,VALID,920.178,VALID,0.0,VALID,67.495,VALID,753.484,VALID,25.088,VALID,288.0,VALID,0.0,
2018-10-19, 09:46:06,VALID,920.176,VALID,0.0,VALID,67.803,VALID,756.206,VALID,25.197,VALID,340.0,VALID,0.0,
2018-10-19, 09:47:06,VALID,920.175,VALID,0.0,VALID,65.189,VALID,758.801,VALID,25.161,VALID,334.0,VALID,0.0,
2018-10-19, 09:48:06,VALID,920.192,VALID,0.0,VALID,66.61,VALID,761.464,VALID,24.996,VALID,259.0,VALID,0.0,
2018-10-19, 09:49:06,VALID,920.175,VALID,0.0,VALID,67.113,VALID,763.937,VALID,24.976,VALID,30.0,VALID,0.0,
2018-10-19, 09:50:06,VALID,920.189,VALID,0.0,VALID,69.246,VALID,765.283,VALID,25.258,VALID,341.0,VALID,0.0,
2018-10-19, 09:51:06,VALID,920.187,VALID,0.0,VALID,67.706,VALID,768.079,VALID,25.574,VALID,275.0,VALID,0.0,
2018-10-19, 09:52:06,VALID,920.16,VALID,0.0,VALID,63.507,VALID,770.609,VALID,25.477,VALID,272.0,VALID,0.0,
2018-10-19, 09:53:06,VALID,920.157,VALID,0.0,VALID,64.894,VALID,773.31,VALID,25.003,VALID,285.0,VALID,0.0,
2018-10-19, 09:54:06,VALID,920.158,VALID,0.0,VALID,67.058,VALID,776.094,VALID,24.93,VALID,307.0,VALID,0.0,
2018-10-19, 09:55:06,VALID,920.145,VALID,0.0,VALID,66.325,VALID,778.553,VALID,25.085,VALID,273.0,VALID,0.0,
2018-10-19, 09:56:06,VALID,920.138,VALID,0.0,VALID,64.736,VALID,780.174,VALID,24.916,VALID,292.0,VALID,0.0,
2018-10-19, 09:57:06,VALID,920.133,VALID,0.0,VALID,65.02,VALID,783.097,VALID,25.011,VALID,235.0,VALID,0.0,
2018-10-19, 09:58:06,VALID,920.131,VALID,0.0,VALID,65.948,VALID,784.994,VALID,24.96,VALID,233.0,VALID,0.0,
2018-10-19, 09:59:06,VALID,920.135,VALID,0.0,VALID,68.812,VALID,787.13,VALID,25.134,VALID,327.0,VALID,0.0,
2018-10-19, 10:00:06,VALID,920.138,VALID,0.0,VALID,65.413,VALID,789.917,VALID,25.145,VALID,266.0,VALID,0.0,
2018-10-19, 10:01:06,VALID,920.125,VALID,0.0,VALID,66.012,VALID,791.913,VALID,25.148,VALID,298.0,VALID,0.0,
2018-10-19, 10:02:06,VALID,920.112,VALID,0.0,VALID,67.51,VALID,795.463,VALID,25.261,VALID,277.0,VALID,0.0,
2018-10-19, 10:03:06,VALID,920.101,VALID,0.0,VALID,69.848,VALID,797.501,VALID,25.596,VALID,1.0,VALID,0.0,
2018-10-19, 10:04:06,VALID,920.101,VALID,0.0,VALID,66.948,VALID,800.421,VALID,25.956,VALID,322.0,VALID,0.0,
2018-10-19, 10:05:06,VALID,920.069,VALID,0.0,VALID,64.264,VALID,801.966,VALID,26.049,VALID,329.0,VALID,0.0,
2018-10-19, 10:06:06,VALID,920.066,VALID,0.0,VALID,63.757,VALID,803.891,VALID,25.899,VALID,279.0,VALID,0.0,
2018-10-19, 10:07:06,VALID,920.043,VALID,0.0,VALID,65.051,VALID,806.249,VALID,25.931,VALID,302.0,VALID,0.0,
2018-10-19, 10:08:06,VALID,920.032,VALID,0.0,VALID,63.115,VALID,809.236,VALID,25.999,VALID,272.0,VALID,0.0,
2018-10-19, 10:09:06,VALID,920.005,VALID,0.0,VALID,61.06,VALID,811.9,VALID,25.848,VALID,290.0,VALID,0.0,
2018-10-19, 10:10:06,VALID,919.958,VALID,0.0,VALID,63.541,VALID,815.143,VALID,25.782,VALID,280.0,VALID,0.0,
2018-10-19, 10:11:06,VALID,919.955,VALID,0.0,VALID,63.156,VALID,816.453,VALID,25.824,VALID,267.0,VALID,0.0,
2018-10-19, 10:12:06,VALID,919.938,VALID,0.0,VALID,63.171,VALID,819.147,VALID,25.683,VALID,310.0,VALID,0.0,
2018-10-19, 10:13:06,VALID,919.934,VALID,0.0,VALID,62.803,VALID,820.48,VALID,25.626,VALID,299.0,VALID,0.0,
2018-10-19, 10:14:06,VALID,919.935,VALID,0.0,VALID,64.219,VALID,822.97,VALID,25.613,VALID,286.0,VALID,0.0,
2018-10-19, 10:15:06,VALID,919.93,VALID,0.0,VALID,65.277,VALID,825.169,VALID,25.906,VALID,338.0,VALID,0.0,
2018-10-19, 10:16:06,VALID,919.911,VALID,0.0,VALID,63.073,VALID,827.906,VALID,25.954,VALID,10.0,VALID,0.0,
2018-10-19, 10:17:06,VALID,919.92,VALID,0.0,VALID,64.979,VALID,830.084,VALID,25.681,VALID,360.0,VALID,0.0,
2018-10-19, 10:18:06,VALID,919.918,VALID,0.0,VALID,62.992,VALID,832.44,VALID,25.71,VALID,289.0,VALID,0.0,
2018-10-19, 10:19:06,VALID,919.899,VALID,0.0,VALID,62.059,VALID,834.727,VALID,25.4,VALID,322.0,VALID,0.0,
2018-10-19, 10:20:06,VALID,919.884,VALID,0.0,VALID,63.544,VALID,836.937,VALID,25.306,VALID,340.0,VALID,0.0,
2018-10-19, 10:21:06,VALID,919.858,VALID,0.0,VALID,62.972,VALID,838.707,VALID,25.26,VALID,239.0,VALID,0.0,
2018-10-19, 10:22:06,VALID,919.85,VALID,0.0,VALID,65.785,VALID,842.013,VALID,25.363,VALID,239.0,VALID,0.0,
2018-10-19, 10:23:06,VALID,919.846,VALID,0.0,VALID,66.108,VALID,844.211,VALID,25.584,VALID,251.0,VALID,0.0,
2018-10-19, 10:24:06,VALID,919.82,VALID,0.0,VALID,64.018,VALID,846.064,VALID,25.598,VALID,273.0,VALID,0.0,
2018-10-19, 10:25:06,VALID,919.808,VALID,0.0,VALID,65.434,VALID,847.555,VALID,25.683,VALID,276.0,VALID,0.0,
2018-10-19, 10:26:06,VALID,919.824,VALID,0.0,VALID,65.228,VALID,850.299,VALID,25.905,VALID,238.0,VALID,0.0,
2018-10-19, 10:27:06,VALID,919.798,VALID,0.0,VALID,63.856,VALID,852.258,VALID,26.246,VALID,302.0,VALID,0.0,
2018-10-19, 10:28:06,VALID,919.804,VALID,0.0,VALID,59.256,VALID,854.248,VALID,26.367,VALID,263.0,VALID,0.0,
2018-10-19, 10:29:06,VALID,919.776,VALID,0.0,VALID,61.528,VALID,855.856,VALID,26.632,VALID,320.0,VALID,0.0,
2018-10-19, 10:30:06,VALID,919.755,VALID,0.0,VALID,59.947,VALID,859.072,VALID,26.835,VALID,357.0,VALID,0.0,
2018-10-19, 10:31:06,VALID,919.748,VALID,0.0,VALID,60.556,VALID,859.273,VALID,26.777,VALID,233.0,VALID,0.0,
2018-10-19, 10:32:06,VALID,919.731,VALID,0.0,VALID,61.44,VALID,862.118,VALID,26.36,VALID,236.0,VALID,0.0,
2018-10-19, 10:33:06,VALID,919.726,VALID,0.0,VALID,62.224,VALID,863.368,VALID,26.115,VALID,226.0,VALID,0.0,
2018-10-19, 10:34:06,VALID,919.72,VALID,0.0,VALID,64.868,VALID,865.61,VALID,26.263,VALID,345.0,VALID,0.0,
2018-10-19, 10:35:06,VALID,919.704,VALID,0.0,VALID,63.554,VALID,868.316,VALID,26.373,VALID,269.0,VALID,0.0,
2018-10-19, 10:36:06,VALID,919.69,VALID,0.0,VALID,62.003,VALID,870.733,VALID,26.242,VALID,272.0,VALID,0.0,
2018-10-19, 10:37:06,VALID,919.679,VALID,0.0,VALID,66.188,VALID,872.9,VALID,26.402,VALID,335.0,VALID,0.0,
2018-10-19, 10:38:06,VALID,919.682,VALID,0.0,VALID,64.355,VALID,875.576,VALID,26.732,VALID,18.0,VALID,0.0,
2018-10-19, 10:39:06,VALID,919.666,VALID,0.0,VALID,62.504,VALID,878.435,VALID,26.952,VALID,296.0,VALID,0.0,